This demonstration page uses our WeatherBlox Daily Observations layout. Learn more.

Left ArrowRight Arrow

Hourly Observations for May 5, 2017

Temp ( °F °C ) Dew Point ( °F °C ) Humidity (%) Winds ( mph kmh ) Pressure ( in mb ) Visibility ( mi km ) Precip ( " mm )
12:52 am 00:52 Mostly Cloudy 50 10 43 6.1 77 77 NW 7 11 29.90 1013 10 16 0.00 0.00
1:52 am 01:52 Clear 48 8.9 42 5.6 80 80 NW 9 15 29.89 1012 10 16 0.00 0.00
2:52 am 02:52 Clear 48 8.9 42 5.6 80 80 NW 9 15 29.88 1012 10 16 0.00 0.00
3:52 am 03:52 Clear 49 9.4 41 5 74 74 NW 8 13 29.88 1012 10 16 0.00 0.00
4:52 am 04:52 Clear 45 7.2 40 4.4 83 83 NW 8 13 29.90 1013 10 16 0.00 0.00
5:52 am 05:52 Clear 45 7.2 39 3.9 80 80 NW 7 11 29.92 1013 10 16 0.00 0.00
6:52 am 06:52 Sunny 45 7.2 39 3.9 80 80 NNW 7 11 29.93 1014 10 16 0.00 0.00
7:52 am 07:52 Sunny 51 10.6 42 5.6 71 71 NW 9 15 29.94 1014 10 16 0.00 0.00
8:52 am 08:52 Sunny 56 13.3 43 6.1 62 62 NNW 12 19 29.95 1014 10 16 0.00 0.00
9:52 am 09:52 Sunny 59 15 43 6.1 56 56 NNW 15 24 29.95 1014 10 16 0.00 0.00
10:52 am 10:52 Sunny 63 17.2 43 6.1 48 48 NNW 16 26 29.96 1015 10 16 0.00 0.00
11:52 am 11:52 Sunny 66 18.9 38 3.3 36 36 N 16 26 29.96 1015 10 16 0.00 0.00
12:52 pm 12:52 Mostly Sunny 66 18.9 39 3.9 37 37 NNW 20 31 29.96 1015 10 16 0.00 0.00
1:52 pm 13:52 Mostly Sunny 68 20 38 3.3 33 33 N 22 35 29.96 1014 10 16 0.00 0.00
2:52 pm 14:52 Sunny 70 21.1 39 3.9 32 32 N 17 28 29.94 1014 10 16 0.00 0.00
3:52 pm 15:52 Mostly Cloudy 70 21.1 42 5.6 37 37 NW 14 22 29.93 1014 10 16 0.00 0.00
4:52 pm 16:52 Partly Cloudy 69 20.6 40 4.4 35 35 N 17 28 29.93 1014 10 16 0.00 0.00
5:52 pm 17:52 Mostly Sunny 68 20 40 4.4 36 36 NNW 14 22 29.93 1014 10 16 0.00 0.00
6:52 pm 18:52 Partly Cloudy 67 19.4 42 5.6 41 41 NNW 10 17 29.93 1013 10 16 0.00 0.00
7:52 pm 19:52 Sunny 65 18.3 41 5 42 42 WNW 5 7 29.92 1013 10 16 0.00 0.00
8:52 pm 20:52 Clear 59 15 43 6.1 56 56 W 3 6 29.93 1014 10 16 0.00 0.00
9:52 pm 21:52 Clear 53 11.7 45 7.2 74 74 WSW 3 6 29.93 1013 10 16 0.00 0.00
10:52 pm 22:52 Clear 52 11.1 44 6.7 75 75 SW 5 7 29.93 1013 10 16 0.00 0.00
11:52 pm 23:52 Clear 51 10.6 43 6.1 74 74 SW 3 6 29.91 1013 10 16 0.00 0.00

Powered by AerisWeather